Hourly Data Report for October 24, 2016

All times are specified in Local Standard Time (LST). Add 1 hour to adjust for Daylight Saving Time where and when it is observed.

SAINT JOHN A
NEW BRUNSWICK

45°18'58.000" N
65°53'24.000" W
108.80 m
8104901
71609
YSJ

Download Data

Hourly Data (October 2016)
Hourly Data Report for October 24, 2016
Temp Definition
°C
Dew Point Temp Definition
°C
Rel Hum Definition
%
Wind Dir Definition
10's deg

Wind Spd Definition
km/h
Visibility Definition
km
Stn Press Definition
kPa
Hmdx Definition


Wind Chill Definition


Weather Definition


TIME
00:00 Legend Double Dagger 5.5 0.9 72 24 27 24.1 98.58     LegendNANA
01:00 Legend Double Dagger 5.6 1.2 73 24 15 24.1 98.64     LegendNANA
02:00 Legend Double Dagger 7.0 0.0 61 24 35 24.1 98.65     Cloudy
03:00 Legend Double Dagger 6.9 -0.8 58 25 31 24.1 98.69     LegendNANA
04:00 Legend Double Dagger 6.3 -1.1 59 24 21 24.1 98.73     LegendNANA
05:00 Legend Double Dagger 5.9 -0.6 63 24 25 24.1 98.79     Mainly Clear
06:00 Legend Double Dagger 5.8 -0.5 64 25 20 24.1 98.84     LegendNANA
07:00 Legend Double Dagger 5.7 -0.4 65 25 19 24.1 98.87     LegendNANA
08:00 Legend Double Dagger 6.4 0.1 64 25 20 24.1 98.97     Mostly Cloudy
09:00 Legend Double Dagger 7.5 -0.2 58 25 27 24.1 99.00     LegendNANA
10:00 Legend Double Dagger 8.5 -0.3 54 26 26 24.1 98.94     LegendNANA
11:00 Legend Double Dagger 9.3 -1.4 47 28 26 24.1 98.90     Mainly Clear
12:00 Legend Double Dagger 9.7 -1.3 46 23 30 24.1 98.86     LegendNANA
13:00 Legend Double Dagger 9.7 -1.6 45 25 27 24.1 98.86     LegendNANA
14:00 Legend Double Dagger 8.5 -1.6 49 27 23 24.1 98.89     Mostly Cloudy
15:00 Legend Double Dagger 8.4 -2.8 45 28 23 24.1 98.96     LegendNANA
16:00 Legend Double Dagger 7.4 -2.6 49 28 25 24.1 99.02     LegendNANA
17:00 Legend Double Dagger 6.2 -2.9 52 28 25 24.1 99.11     Mainly Clear
18:00 Legend Double Dagger 4.7 -2.6 59 28 18 24.1 99.19     LegendNANA
19:00 Legend Double Dagger 3.9 -2.1 65 24 11 24.1 99.26     LegendNANA
20:00 Legend Double Dagger 4.2 -2.4 62 24 17 24.1 99.31     Mostly Cloudy
21:00 Legend Double Dagger 4.0 -2.4 63 25 13 24.1 99.36     LegendNANA
22:00 Legend Double Dagger 4.0 -2.4 63 25 13 24.1 99.37     LegendNANA
23:00 Legend Double Dagger 3.6 -2.6 64 26 14 24.1 99.37     Mostly Cloudy

Notes on Data Quality.

Legend

  • E = Estimated
  • M = Missing
  • NA = Not Available
  • ‡ = Partner data that is not subject to review by the National Climate Archives
Date modified: